Location: McFarlands Corners
(41.4117°N, 81.3382°W)
Time: 12:20:36
(UTC+00:00)

Tiros 1 - Pass Details

Date: 20 February 2026
Orbit: 618 x 650 km, 48.4° (Epoch: 16 March)

Event Time Altitude Azimuth Distance (km) Brightness Sun altitude
Rises 15:35:50 0° 282° (WNW) 2,907 10.1 30.6°
Reaches altitude 10° 15:38:20 10° 291° (WNW) 1,996 9.3 30.9°
Maximum altitude 15:42:31 34° 357° (N) 1,033 8.1 31.3°
Drops below altitude 10° 15:46:40 10° 63° (ENE) 1,984 9.8 31.8°
Sets 15:49:09 0° 73° (ENE) 2,887 10.7 32.0°
